Location: G�ndlingen
(48.0142°N, 7.6396°E)
Time: 18:51:21
(UTC+00:00)

IGS 5A - Pass Details

Date: 05 July 2020
Orbit: 582 x 589 km, 97.6° (Epoch: 08 August)

Event Time Altitude Azimuth Distance (km) Brightness Sun altitude
Exits shadow 20:35:37 - 169° (S) 2,084 5.7 -8.8°
Reaches altitude 10° 20:36:02 10° 169° (S) 1,910 5.5 -8.8°
Maximum altitude 20:40:11 80° 257° (WSW) 602 3.5 -9.3°
Drops below altitude 10° 20:44:22 10° 345° (NNW) 1,922 7.3 -9.7°
Sets 20:46:32 0° 347° (NNW) 2,826 8.3 -9.9°
